Stations météo

Publicité
Lille, France (7015): Température de l'air & dewpoint: 15.10.2019 05:00:00 - 21.10.2019 05:00:00 (CEST)Lille, France (7015): Température de l'air 5cm: 15.10.2019 05:00:00 - 21.10.2019 05:00:00 (CEST)Lille, France (7015): Température de l'air -20cm & Température de l'air -100cm: 15.10.2019 05:00:00 - 21.10.2019 05:00:00 (CEST)Lille, France (7015): Vitesse du vent & gusts: 15.10.2019 05:00:00 - 21.10.2019 05:00:00 (CEST)Lille, France (7015): Direction du vent: 15.10.2019 05:00:00 - 21.10.2019 05:00:00 (CEST)Lille, France (7015): reduced air pressure: 15.10.2019 05:00:00 - 21.10.2019 05:00:00 (CEST)Lille, France (7015): visibility: 15.10.2019 05:00:00 - 21.10.2019 05:00:00 (CEST)Lille, France (7015): Quantités de précipitations: 15.10.2019 05:00:00 - 21.10.2019 05:00:00 (CEST)
Date & Time tt [°C] td [°C] tt 5cm [°C] tt -20cm [°C] tt -100cm [°C] ff [km/h] ff [knt] fx [km/h] fx [knt] dd ppp [hPa] vv [km] rr [mm]
21.10.2019 05:00:00 - - - - - - - - - - - - -
21.10.2019 04:00:00 10,6 10,0 10,3 12,5 15,0 21 12 36 19 NE 1009,3 4,1 1,2
21.10.2019 03:00:00 10,5 9,9 10,1 12,5 15,0 22 12 33 18 NNE 1009,3 4,9 0,6
21.10.2019 02:00:00 10,5 9,6 10,1 12,6 15,0 24 13 37 20 NNE 1009,5 3,1 0,8
21.10.2019 01:00:00 10,9 9,5 10,3 12,7 15,0 20 11 40 21 NNE 1009,7 10 2,0
21.10.2019 00:00:00 11,1 9,8 10,5 12,8 15,0 20 11 34 19 N 1009,9 2,2 1,0
20.10.2019 23:00:00 11,5 9,4 10,8 12,8 15,0 17 9 35 19 NNE 1010,2 13 0,2
20.10.2019 22:00:00 11,5 9,9 11,0 12,9 15,0 14 8 32 17 NE 1009,0 7 0,0
20.10.2019 21:00:00 11,6 10,2 11,0 13,0 15,0 12 7 22 12 N 1009,0 6 0,2
20.10.2019 20:00:00 11,9 9,6 10,9 13,1 15,0 11 6 26 14 NNE 1009,4 11 0,2
20.10.2019 19:00:00 12,7 10,1 11,9 13,2 15,0 12 6 31 17 NNE 1009,0 14 0,0
20.10.2019 18:00:00 13,0 9,6 13,1 13,2 15,0 14 7 29 15 NNE 1008,6 19 0,0
20.10.2019 17:00:00 13,3 9,9 13,8 13,1 15,1 18 10 29 16 NNE 1008,3 20 0,0
20.10.2019 16:00:00 13,4 10,4 14,2 12,9 15,0 17 9 27 15 NE 1008,3 20 0,0
20.10.2019 15:00:00 13,5 11,0 12,9 12,7 15,0 18 10 28 15 NNE 1007,9 16 0,0
20.10.2019 14:00:00 12,5 10,9 12,9 12,5 15,0 12 7 19 10 N 1008,5 12 0,4
20.10.2019 13:00:00 11,9 10,5 12,0 12,3 15,0 12 7 19 11 N 1008,1 10 0,0
20.10.2019 12:00:00 11,2 10,1 11,5 12,2 15,0 9 5 13 7 N 1008,0 9 0,2
20.10.2019 11:00:00 10,8 10,3 10,5 12,1 15,0 6 3 9 5 NE 1007,7 5 0,0
20.10.2019 10:00:00 10,1 9,8 9,8 12,0 15,1 3 2 8 5 E 1008,0 3,2 0,0
20.10.2019 09:00:00 9,7 9,4 9,1 12,0 15,1 3 2 5 3 ENE 1007,6 4,2 0,0
20.10.2019 08:00:00 9,4 8,9 8,9 12,1 15,1 4 2 9 5 SE 1007,3 2,8 0,0
20.10.2019 07:00:00 9,6 9,1 9,0 12,2 15,1 4 2 9 5 N 1007,1 3,8 0,0
20.10.2019 06:00:00 9,5 9,0 8,9 12,2 15,1 3 1 6 3 E 1007,0 3,2 0,0
20.10.2019 05:00:00 9,4 8,8 8,7 12,3 15,1 3 2 7 4 ESE 1006,4 5 0,0
20.10.2019 04:00:00 9,7 9,1 8,5 12,3 15,1 4 2 8 5 ENE 1006,6 8 0,0
20.10.2019 03:00:00 9,5 8,7 7,8 12,4 15,1 6 3 9 5 SSE 1006,6 12 0,0
20.10.2019 02:00:00 9,4 8,3 7,4 12,6 15,1 4 2 8 4 E 1006,6 12 0,0
20.10.2019 01:00:00 10,3 8,9 9,8 12,7 15,1 2 1 10 5 SSE 1006,8 22 0,0
20.10.2019 00:00:00 10,3 8,7 9,8 12,8 15,1 6 3 10 5 S 1006,9 26 0,0
19.10.2019 23:00:00 10,0 8,8 8,9 13,0 15,1 7 4 11 6 SSE 1006,7 23 0,0
19.10.2019 22:00:00 10,4 8,5 9,5 13,2 15,1 3 2 11 6 SE 1005,7 28 0,0
19.10.2019 21:00:00 10,9 8,6 10,0 13,4 15,1 6 3 15 8 S 1005,4 55 0,0
19.10.2019 20:00:00 11,5 8,9 10,7 13,6 15,1 9 5 14 7 S 1005,2 60 0,0
19.10.2019 19:00:00 12,4 8,7 11,7 13,8 15,1 9 5 22 12 S 1004,7 60 0,0
19.10.2019 18:00:00 13,7 9,1 13,9 13,9 15,1 14 8 30 16 SSW 1004,3 56 0,0
19.10.2019 17:00:00 14,5 8,9 14,9 13,9 15,2 19 10 38 20 SSW 1004,1 55 0,0
19.10.2019 16:00:00 14,4 9,0 15,2 13,7 15,1 22 12 37 20 SSW 1003,9 57 0,0
19.10.2019 15:00:00 14,4 9,4 15,5 13,6 15,1 24 13 38 21 S 1003,8 60 0,0
19.10.2019 14:00:00 14,5 9,5 15,5 13,3 15,1 24 13 36 19 S 1003,8 53 0,0
19.10.2019 13:00:00 13,8 9,6 14,3 13,0 15,1 20 11 35 19 SSW 1003,7 41 0,0
19.10.2019 12:00:00 13,7 9,9 14,3 12,8 15,2 23 12 37 20 SSW 1004,1 60 0,2
19.10.2019 11:00:00 12,5 9,5 11,8 12,6 15,2 16 8 28 15 S 1003,6 52 0,0
19.10.2019 10:00:00 11,1 8,8 10,5 12,6 15,2 15 8 23 12 S 1003,5 59 0,0
19.10.2019 09:00:00 11,0 9,3 10,5 12,6 15,2 14 8 30 16 S 1003,3 60 0,0
19.10.2019 08:00:00 11,4 10,0 10,7 12,6 15,1 19 11 30 16 S 1002,8 31 0,0
19.10.2019 07:00:00 11,7 10,6 11,1 12,6 15,2 13 7 34 18 S 1002,7 19 0,2
19.10.2019 06:00:00 11,7 10,8 11,1 12,6 15,2 17 9 29 16 S 1003,1 16 0,8
19.10.2019 05:00:00 11,7 10,4 11,1 12,6 15,2 15 8 31 17 S 1003,5 10 1,2
19.10.2019 04:00:00 11,9 10,1 11,1 12,6 15,2 23 12 37 20 S 1003,8 10 0,8
19.10.2019 03:00:00 12,3 9,5 11,6 12,6 15,2 21 12 38 20 S 1003,9 59 0,0
19.10.2019 02:00:00 12,2 8,7 11,8 12,6 15,2 24 13 39 21 S 1004,2 56 0,0
19.10.2019 01:00:00 12,3 8,0 11,8 12,7 15,2 23 12 35 19 S 1004,8 57 0,0
19.10.2019 00:00:00 12,4 7,5 11,8 12,8 15,2 23 13 37 20 S 1005,2 59 0,0
18.10.2019 23:00:00 12,6 7,3 11,9 12,9 15,2 22 12 43 23 S 1005,3 59 0,0
18.10.2019 22:00:00 12,7 6,9 12,0 13,0 15,2 25 14 40 22 S 1005,8 60 0,0
18.10.2019 21:00:00 12,7 7,2 12,1 13,3 15,2 24 13 36 20 S 1006,1 60 0,0
18.10.2019 20:00:00 12,9 6,9 12,2 13,5 15,2 20 11 35 19 S 1006,4 60 0,0
18.10.2019 19:00:00 13,1 6,9 12,3 13,7 15,2 21 12 40 22 S 1006,4 60 0,0
18.10.2019 18:00:00 14,7 6,8 14,7 13,8 15,2 28 15 48 26 S 1006,4 45 0,0
18.10.2019 17:00:00 15,2 6,7 15,0 13,8 15,2 25 14 51 28 SSW 1006,6 42 0,0
18.10.2019 16:00:00 15,0 7,8 15,3 13,7 15,2 29 16 58 32 SSW 1006,3 42 0,0
18.10.2019 15:00:00 15,1 7,6 14,7 13,6 15,2 38 20 58 31 SSW 1006,1 51 0,0
18.10.2019 14:00:00 14,2 7,7 14,6 13,4 15,2 37 20 59 32 SW 1006,1 30 0,0
18.10.2019 13:00:00 13,6 8,4 11,4 13,2 15,2 35 19 59 32 SW 1005,5 30 0,0
18.10.2019 12:00:00 11,3 7,6 9,6 13,1 15,2 29 16 67 36 SW 1005,3 26 1,0
18.10.2019 11:00:00 12,5 7,2 11,7 13,2 15,2 40 22 64 35 SW 1004,2 16 0,0
18.10.2019 10:00:00 11,8 6,5 10,9 13,4 15,2 37 20 61 33 SSW 1003,4 35 0,0
18.10.2019 09:00:00 12,4 8,9 11,1 13,4 15,2 29 15 59 32 SSW 1001,0 23 0,2
18.10.2019 08:00:00 13,0 10,7 11,9 13,5 15,3 33 18 50 27 S 1002,2 57 0,2
18.10.2019 07:00:00 13,4 10,7 12,6 13,5 15,2 27 14 45 24 S 1002,9 60 0,0
18.10.2019 06:00:00 13,1 11,0 12,6 13,6 15,2 23 12 43 23 S 1003,7 60 0,0
18.10.2019 05:00:00 13,0 11,1 12,5 13,6 15,2 19 10 35 19 S 1004,7 60 0,0
18.10.2019 04:00:00 13,0 11,1 12,6 13,7 15,2 21 11 32 17 S 1005,4 60 0,0
18.10.2019 03:00:00 12,8 11,4 12,1 13,7 15,2 19 10 30 16 S 1006,2 54 0,0
18.10.2019 02:00:00 13,0 11,2 12,2 13,9 15,3 15 8 26 14 S 1006,6 48 0,0
18.10.2019 01:00:00 12,9 11,0 12,0 13,9 15,3 16 9 30 16 S 1007,1 60 0,0
18.10.2019 00:00:00 13,1 11,0 12,3 14,0 15,2 19 10 31 17 S 1007,4 60 0,2
17.10.2019 23:00:00 13,6 12,2 12,9 14,1 15,3 17 9 35 19 S 1007,8 20 0,8
17.10.2019 22:00:00 13,5 12,2 12,1 14,1 15,2 19 10 29 16 SSE 1007,9 19 0,2
17.10.2019 21:00:00 12,9 11,0 12,0 14,3 15,2 11 6 17 9 SSE 1008,4 8 0,4
17.10.2019 20:00:00 12,6 9,6 11,4 14,6 15,3 10 5 12 7 SE 1008,6 57 0,0
17.10.2019 19:00:00 13,7 9,3 12,7 14,8 15,3 8 5 18 10 SSE 1008,5 60 0,0
17.10.2019 18:00:00 15,9 9,3 18,0 15,0 15,3 13 7 22 12 S 1008,5 51 0,0
17.10.2019 17:00:00 16,4 8,9 19,1 14,9 15,3 16 9 26 14 S 1008,5 53 0,0
17.10.2019 16:00:00 16,4 8,9 17,3 14,6 15,3 16 9 32 17 SW 1008,9 26 0,0
17.10.2019 15:00:00 16,1 10,2 16,0 14,3 15,3 22 12 33 18 SSW 1009,2 23 0,0
17.10.2019 14:00:00 14,8 10,2 15,7 14,0 15,3 18 10 33 18 SSW 1009,6 58 0,0
17.10.2019 13:00:00 14,9 10,3 16,3 13,7 15,3 21 11 33 18 S 1010,2 45 0,2
17.10.2019 12:00:00 14,1 10,5 14,6 13,4 15,3 17 9 29 16 S 1010,1 36 0,0
17.10.2019 11:00:00 12,8 10,5 12,1 13,2 15,3 18 10 28 15 S 1010,4 25 0,0
17.10.2019 10:00:00 11,3 10,4 10,2 13,3 15,3 11 6 26 14 S 1010,5 17 0,0
17.10.2019 09:00:00 10,4 9,8 9,4 13,4 15,3 10 5 20 11 S 1010,3 20 0,0
17.10.2019 08:00:00 10,9 10,0 10,0 13,6 15,3 16 9 23 12 SSE 1009,4 28 0,0
17.10.2019 07:00:00 11,4 10,5 10,9 13,7 15,3 10 5 16 9 SSW 1009,4 35 0,0
17.10.2019 06:00:00 11,3 10,2 10,8 13,8 15,3 10 6 18 10 SW 1009,2 48 0,0
17.10.2019 05:00:00 11,1 10,5 10,3 13,9 15,3 11 6 18 10 WSW 1008,8 25 0,0
17.10.2019 04:00:00 11,1 10,3 10,1 14,1 15,3 11 6 15 8 WSW 1008,4 20 0,0
17.10.2019 03:00:00 11,4 10,3 10,9 14,2 15,3 12 6 30 16 W 1008,0 39 0,0
17.10.2019 02:00:00 12,7 11,9 12,4 14,3 15,3 20 11 41 22 WNW 1007,2 4,0 0,4
17.10.2019 01:00:00 14,1 13,3 13,6 14,3 15,3 25 14 40 22 S 1006,3 20 0,0
17.10.2019 00:00:00 14,0 13,4 13,6 14,3 15,3 27 15 42 23 S 1006,0 6 0,8
16.10.2019 23:00:00 13,9 13,1 13,5 14,3 15,3 24 13 44 24 S 1006,1 8 1,2
16.10.2019 22:00:00 14,0 13,2 13,7 14,3 15,3 25 13 44 24 S 1005,9 4,8 1,2
16.10.2019 21:00:00 14,3 13,2 13,8 14,3 15,3 26 14 44 24 S 1006,0 25 0,2
16.10.2019 20:00:00 14,5 13,2 14,0 14,3 15,3 25 14 41 22 S 1006,1 42 0,0
16.10.2019 19:00:00 14,4 13,4 14,0 14,3 15,3 26 14 42 23 S 1006,0 10 3,1
16.10.2019 18:00:00 14,5 13,5 14,0 14,3 15,3 29 16 47 26 S 1006,0 9 1,2
16.10.2019 17:00:00 14,9 13,6 14,4 14,2 15,3 26 14 44 24 S 1006,3 17 0,4
16.10.2019 16:00:00 14,7 13,6 14,2 14,1 15,3 25 13 41 22 S 1006,3 18 1,8
16.10.2019 15:00:00 14,7 13,1 14,1 13,9 15,3 23 12 48 26 S 1006,3 15 0,2
16.10.2019 14:00:00 14,5 13,2 14,1 13,8 15,3 26 14 42 23 S 1006,3 32 0,2
16.10.2019 13:00:00 14,6 13,3 14,2 13,6 15,3 27 15 45 24 S 1006,4 17 0,0
16.10.2019 12:00:00 14,3 12,7 13,2 13,4 15,3 28 15 44 24 S 1006,4 47 0,0
16.10.2019 11:00:00 13,2 12,1 12,2 13,2 15,3 26 14 39 21 S 1006,3 8 0,2
16.10.2019 10:00:00 12,2 11,7 11,5 13,1 15,3 22 12 35 19 SSE 1006,7 4,8 1,6
16.10.2019 09:00:00 11,8 11,2 10,9 13,1 15,3 23 12 41 22 SSE 1007,1 2,0 1,2
16.10.2019 08:00:00 11,3 10,2 10,4 13,1 15,3 19 10 31 17 SSE 1007,2 20 0,4
16.10.2019 07:00:00 11,0 9,4 10,6 13,2 15,3 18 10 33 18 SSE 1007,7 20 0,0
16.10.2019 06:00:00 11,0 9,1 10,4 13,2 15,3 18 10 29 16 S 1008,4 57 0,0
16.10.2019 05:00:00 10,5 8,9 9,7 13,4 15,3 15 8 26 14 S 1008,9 60 0,0
16.10.2019 04:00:00 10,4 8,7 9,8 13,5 15,3 14 8 24 13 S 1009,5 59 0,0
16.10.2019 03:00:00 11,4 9,6 10,8 13,6 15,3 16 9 26 14 SSW 1009,4 58 0,0
16.10.2019 02:00:00 11,4 9,8 10,9 13,8 15,3 17 9 27 14 SSW 1009,3 58 0,0
16.10.2019 01:00:00 11,5 9,9 10,6 13,9 15,3 13 7 22 12 SSW 1009,1 60 0,0
16.10.2019 00:00:00 11,2 9,1 10,7 14,2 15,3 15 8 23 13 SSW 1008,9 60 0,0
15.10.2019 23:00:00 12,0 9,2 11,4 14,4 15,3 13 7 26 14 SSW 1008,6 60 0,0
15.10.2019 22:00:00 12,8 10,2 12,2 14,5 15,3 11 6 18 10 S 1008,3 55 0,0
15.10.2019 21:00:00 12,8 10,0 11,5 14,7 15,3 12 7 19 10 S 1008,1 51 0,0
15.10.2019 20:00:00 12,8 9,6 11,9 15,0 15,3 8 5 16 9 S 1007,8 47 0,0
15.10.2019 19:00:00 13,7 9,7 13,1 15,1 15,3 10 5 34 19 SSW 1007,4 60 0,0
15.10.2019 18:00:00 14,9 9,0 15,0 15,2 15,3 16 8 27 15 SSW 1006,7 50 0,0
15.10.2019 17:00:00 15,2 10,0 15,6 15,3 15,3 17 9 36 19 SSW 1006,5 56 0,0
15.10.2019 16:00:00 15,6 9,9 15,3 15,3 15,3 19 10 30 16 SW 1006,5 27 0,0
15.10.2019 15:00:00 15,7 11,1 15,7 15,2 15,3 16 9 30 16 S 1006,2 45 0,0
15.10.2019 14:00:00 15,4 11,4 15,9 15,1 15,2 19 10 28 15 SSW 1006,2 47 0,0
15.10.2019 13:00:00 15,3 11,3 15,8 15,0 15,2 17 9 30 16 SSW 1006,4 53 0,0
15.10.2019 12:00:00 14,9 12,0 15,3 14,8 15,2 18 10 30 16 SSW 1006,4 40 0,0
15.10.2019 11:00:00 14,4 12,4 14,5 14,8 15,2 18 10 26 14 S 1006,2 42 0,0
15.10.2019 10:00:00 13,9 12,3 13,7 14,8 15,3 11 6 17 9 S 1005,8 48 0,0
15.10.2019 09:00:00 13,7 12,3 13,6 14,8 15,2 11 6 18 10 S 1005,8 54 0,0
15.10.2019 08:00:00 13,8 12,4 13,6 15,0 15,2 11 6 23 13 S 1005,4 53 0,0
15.10.2019 07:00:00 13,9 12,6 13,7 15,0 15,2 13 7 22 12 S 1005,2 59 0,0
15.10.2019 06:00:00 14,2 13,1 13,7 15,1 15,2 11 6 19 10 S 1004,9 49 0,0
15.10.2019 05:00:00 14,3 13,0 13,8 15,2 15,2 11 6 27 15 SSE 1004,9 52 0,0

tt = Température de l'air
td = dewpoint
tt 5cm = Température de l'air 5cm
tt -20cm = Température de l'air -20cm
tt -100cm = Température de l'air -100cm
ff = Vitesse du vent
fx = gusts
dd = Direction du vent
ppp = reduced air pressure
vv = visibility
rr = Quantités de précipitations

stations d'obs. à proximité